Fort Dodge, IA

3:23 PM CDT on September 26, 2017 (GMT -0500)
Fort Dodge Regional

Weather History for KFOD - January, 2013

Change the Weather History Date:

Wednesday, January 23, 2013

  Actual Average Record
Temperature  
Mean Temperature 12 °F -  
Max Temperature 24 °F 29 °F 58 °F (1981)
Min Temperature 0 °F 10 °F -23 °F (1963)
Degree Days  
Heating Degree Days 53    
Moisture  
Dew Point 4 °F    
Average Humidity 66    
Maximum Humidity 85    
Minimum Humidity 53    
Precipitation  
Precipitation 0.00 in - - ()
Sea Level Pressure  
Sea Level Pressure 30.27 in    
Wind  
Wind Speed 11 mph (NW)    
Max Wind Speed 18 mph    
Max Gust Speed 26 mph    
Visibility 10 miles    
Events      
Averages and records for this station are not official NWS values.
T = Trace of Precipitation, MM = Missing Value Source: NWS Daily Summary

Daily Weather History Graph

Daily Weather History Graph

Search for Another Location

Airport or City:

Trip Planner

Search our weather history database for the weather conditions in past years. The results will help you decide how hot, cold, wet, or windy it might be!

Date:

Astronomy

Jan. 23, 2013 Rise Set
Actual Time 7:38 AM CST 5:19 PM CST
Civil Twilight 7:08 AM CST 5:49 PM CST
Nautical Twilight 6:33 AM CST 6:23 PM CST
Astronomical Twilight 6:00 AM CST 6:57 PM CST
Moon 2:29 PM CST (1/23) 4:51 AM CST (1/23)
Length of Visible Light 10h 41m
Length of Day
9h 40m
Waxing Gibbous, 89% of the Moon is Illuminated
Jan 23
Waxing Gibbous
Jan 26
Full
Feb 3
Last Quarter
Feb 10
New
Feb 17
First Quarter

Hourly Weather History & Observations

Time (CST) Temp. Windchill Dew Point Humidity Pressure Visibility Wind Dir Wind Speed Gust Speed Precip Events Conditions
12:15 AM 15.8 °F 2.1 °F 6.8 °F 68% 30.22 in 10.0 mi SSW 12.7 mph 16.1 mph N/A   Overcast
12:35 AM 15.8 °F 2.7 °F 6.8 °F 68% 30.21 in 10.0 mi SSW 11.5 mph - N/A   Overcast
12:55 AM 15.8 °F 2.1 °F 6.8 °F 68% 30.20 in 10.0 mi SSW 12.7 mph 17.3 mph N/A   Overcast
1:15 AM 15.8 °F 2.1 °F 6.8 °F 68% 30.19 in 10.0 mi SSW 12.7 mph - N/A   Overcast
1:35 AM 15.8 °F 2.7 °F 6.8 °F 68% 30.19 in 10.0 mi SSW 11.5 mph - N/A   Overcast
1:55 AM 15.8 °F 2.7 °F 6.8 °F 68% 30.20 in 10.0 mi SSW 11.5 mph - N/A   Overcast
2:15 AM 15.8 °F 2.7 °F 6.8 °F 68% 30.20 in 10.0 mi SSW 11.5 mph - N/A   Overcast
2:35 AM 15.8 °F 1.4 °F 6.8 °F 68% 30.20 in 10.0 mi SSW 13.8 mph - N/A   Overcast
2:55 AM 15.8 °F 1.4 °F 6.8 °F 68% 30.18 in 10.0 mi SSW 13.8 mph - N/A   Overcast
3:15 AM 15.8 °F 2.1 °F 6.8 °F 68% 30.18 in 10.0 mi SSW 12.7 mph - N/A   Overcast
3:35 AM 15.8 °F 0.9 °F 6.8 °F 68% 30.16 in 10.0 mi South 15.0 mph 18.4 mph N/A   Overcast
3:55 AM 15.8 °F 2.1 °F 6.8 °F 68% 30.16 in 10.0 mi South 12.7 mph - N/A   Overcast
4:15 AM 15.8 °F 2.7 °F 6.8 °F 68% 30.15 in 10.0 mi SSW 11.5 mph - N/A   Overcast
4:35 AM 15.8 °F 2.7 °F 6.8 °F 68% 30.14 in 10.0 mi SSW 11.5 mph - N/A   Overcast
4:55 AM 15.8 °F 5.1 °F 6.8 °F 68% 30.14 in 10.0 mi South 8.1 mph - N/A   Overcast
5:15 AM 14.0 °F 2.0 °F 5.0 °F 67% 30.12 in 10.0 mi SSW 9.2 mph - N/A   Mostly Cloudy
5:35 AM 14.0 °F 2.9 °F 5.0 °F 67% 30.14 in 10.0 mi SW 8.1 mph - N/A   Scattered Clouds
5:55 AM 12.2 °F 1.7 °F 3.2 °F 67% 30.15 in 10.0 mi SW 6.9 mph - N/A   Clear
6:15 AM 10.4 °F 0.8 °F 3.2 °F 73% 30.15 in 10.0 mi SW 5.8 mph - N/A   Clear
6:35 AM 8.6 °F 0.1 °F 1.4 °F 73% 30.15 in 10.0 mi SW 4.6 mph - N/A   Clear
6:55 AM 10.4 °F 2.2 °F 3.2 °F 73% 30.14 in 10.0 mi SW 4.6 mph - N/A   Clear
7:15 AM 8.6 °F 0.1 °F 3.2 °F 79% 30.14 in 10.0 mi SW 4.6 mph - N/A   Clear
7:35 AM 10.4 °F 2.2 °F 6.8 °F 85% 30.15 in 10.0 mi SW 4.6 mph - N/A   Clear
7:55 AM 10.4 °F 4.0 °F 5.0 °F 79% 30.15 in 10.0 mi WSW 3.5 mph - N/A   Clear
8:15 AM 12.2 °F - 6.8 °F 79% 30.16 in 10.0 mi Calm Calm - N/A   Clear
8:35 AM 12.2 °F 4.3 °F 6.8 °F 79% 30.15 in 10.0 mi West 4.6 mph - N/A   Clear
8:55 AM 14.0 °F 2.9 °F 8.6 °F 79% 30.15 in 10.0 mi NW 8.1 mph - N/A   Clear
9:15 AM 15.8 °F 6.1 °F 8.6 °F 73% 30.17 in 10.0 mi NW 6.9 mph - N/A   Clear
9:35 AM 15.8 °F 4.2 °F 10.4 °F 79% 30.18 in 10.0 mi NW 9.2 mph - N/A   Clear
9:55 AM 17.6 °F 7.3 °F 8.6 °F 68% 30.19 in 10.0 mi NNW 8.1 mph - N/A   Clear
10:15 AM 19.4 °F 10.4 °F 12.2 °F 74% 30.19 in 10.0 mi North 6.9 mph - N/A   Clear
10:35 AM 19.4 °F 8.6 °F 12.2 °F 74% 30.20 in 10.0 mi NNW 9.2 mph 16.1 mph N/A   Clear
10:55 AM 19.4 °F 7.9 °F 12.2 °F 74% 30.22 in 10.0 mi NNW 10.4 mph - N/A   Scattered Clouds
11:15 AM 21.2 °F 10.9 °F 12.2 °F 68% 30.22 in 10.0 mi North 9.2 mph - N/A   Mostly Cloudy
11:35 AM 21.2 °F 13.6 °F 12.2 °F 68% 30.22 in 10.0 mi NNW 5.8 mph - N/A   Mostly Cloudy
11:55 AM 21.2 °F 12.6 °F 12.2 °F 68% 30.22 in 10.0 mi NNW 6.9 mph - N/A   Mostly Cloudy
12:15 PM 21.2 °F 10.1 °F 12.2 °F 68% 30.22 in 10.0 mi NNW 10.4 mph 17.3 mph N/A   Mostly Cloudy
12:35 PM 21.2 °F 10.9 °F 12.2 °F 68% 30.23 in 10.0 mi NW 9.2 mph 17.3 mph N/A   Scattered Clouds
12:55 PM 23.0 °F 15.8 °F 12.2 °F 63% 30.23 in 10.0 mi NNW 5.8 mph - N/A   Mostly Cloudy
1:15 PM 24.8 °F 15.3 °F 12.2 °F 59% 30.22 in 10.0 mi NNW 9.2 mph 20.7 mph N/A   Mostly Cloudy
1:35 PM 23.0 °F 12.4 °F 12.2 °F 63% 30.22 in 10.0 mi NNW 10.4 mph 16.1 mph N/A   Scattered Clouds
1:55 PM 21.2 °F 9.5 °F 12.2 °F 68% 30.23 in 10.0 mi NNW 11.5 mph 17.3 mph N/A   Mostly Cloudy
2:15 PM 23.0 °F 11.1 °F 12.2 °F 63% 30.23 in 10.0 mi NW 12.7 mph 20.7 mph N/A   Overcast
2:35 PM 21.2 °F 10.1 °F 10.4 °F 63% 30.24 in 10.0 mi NNW 10.4 mph 19.6 mph N/A   Mostly Cloudy
2:55 PM 21.2 °F 9.5 °F 12.2 °F 68% 30.25 in 10.0 mi NW 11.5 mph 21.9 mph N/A   Partly Cloudy
3:15 PM 21.2 °F 8.9 °F 10.4 °F 63% 30.26 in 10.0 mi NNW 12.7 mph 19.6 mph N/A   Clear
3:35 PM 21.2 °F 8.3 °F 8.6 °F 58% 30.27 in 10.0 mi NW 13.8 mph 21.9 mph N/A   Clear
3:55 PM 19.4 °F 6.6 °F 8.6 °F 63% 30.28 in 10.0 mi NW 12.7 mph 24.2 mph N/A   Partly Cloudy
4:15 PM 19.4 °F 5.0 °F 6.8 °F 58% 30.29 in 10.0 mi NNW 16.1 mph 21.9 mph N/A   Partly Cloudy
4:35 PM 17.6 °F 3.2 °F 5.0 °F 58% 30.30 in 10.0 mi North 15.0 mph 20.7 mph N/A   Clear
4:55 PM 15.8 °F 0.3 °F 3.2 °F 58% 30.32 in 10.0 mi North 16.1 mph 26.5 mph N/A   Clear
5:15 PM 12.2 °F -4.3 °F -0.4 °F 57% 30.35 in 10.0 mi NNW 16.1 mph 25.3 mph N/A   Clear
5:35 PM 12.2 °F -5.3 °F -2.2 °F 53% 30.35 in 10.0 mi NNW 18.4 mph 26.5 mph N/A   Clear
5:55 PM 10.4 °F -2.4 °F -2.2 °F 57% 30.37 in 10.0 mi NNW 9.2 mph 21.9 mph N/A   Clear
6:15 PM 8.6 °F -4.7 °F -2.2 °F 62% 30.38 in 10.0 mi NNW 9.2 mph 17.3 mph N/A   Clear
6:35 PM 8.6 °F -7.7 °F -2.2 °F 62% 30.39 in 10.0 mi NNW 13.8 mph 20.7 mph N/A   Clear
6:55 PM 6.8 °F -10.0 °F -5.8 °F 56% 30.41 in 10.0 mi NNW 13.8 mph 24.2 mph N/A   Clear
7:15 PM 5.0 °F -12.3 °F -7.6 °F 56% 30.42 in 10.0 mi NNW 13.8 mph 25.3 mph N/A   Clear
7:35 PM 3.2 °F -15.9 °F -7.6 °F 61% 30.42 in 10.0 mi North 16.1 mph 25.3 mph N/A   Clear
7:55 PM 3.2 °F -11.3 °F -7.6 °F 61% 30.43 in 10.0 mi North 9.2 mph 19.6 mph N/A   Partly Cloudy
8:15 PM 3.2 °F -15.9 °F -7.6 °F 61% 30.44 in 10.0 mi NNW 16.1 mph 19.6 mph N/A   Clear
8:35 PM 3.2 °F -13.1 °F -9.4 °F 56% 30.45 in 10.0 mi North 11.5 mph 20.7 mph N/A   Clear
8:55 PM 3.2 °F -13.1 °F -7.6 °F 61% 30.46 in 10.0 mi North 11.5 mph 17.3 mph N/A   Clear
9:15 PM 1.4 °F -15.3 °F -7.6 °F 66% 30.47 in 10.0 mi North 11.5 mph 19.6 mph N/A   Clear
9:35 PM 1.4 °F -16.1 °F -9.4 °F 61% 30.47 in 10.0 mi North 12.7 mph 18.4 mph N/A   Clear
9:55 PM 1.4 °F -13.5 °F -9.4 °F 61% 30.48 in 10.0 mi North 9.2 mph - N/A   Clear
10:15 PM 1.4 °F -16.1 °F -9.4 °F 61% 30.48 in 10.0 mi North 12.7 mph 17.3 mph N/A   Clear
10:35 PM 1.4 °F -15.3 °F -9.4 °F 61% 30.48 in 10.0 mi North 11.5 mph 17.3 mph N/A   Clear
10:55 PM -0.4 °F -15.7 °F -9.4 °F 66% 30.49 in 10.0 mi North 9.2 mph - N/A   Clear
11:15 PM -0.4 °F -16.7 °F -9.4 °F 66% 30.52 in 10.0 mi North 10.4 mph 16.1 mph N/A   Clear
11:35 PM -0.4 °F -15.7 °F -11.2 °F 60% 30.53 in 10.0 mi North 9.2 mph - N/A   Clear
11:55 PM -0.4 °F -16.7 °F -11.2 °F 60% 30.54 in 10.0 mi North 10.4 mph 16.1 mph N/A   Clear